Showing default

HYSIS, 43719

Orbit data source: Space-Track

HYSIS, 43719 is a payload satellite owned by ISRO (IN) in SSO that was launched on Thu, 29 Nov 2018 UTC via a PSLV launch vehicle from the Sirharikota (SRI). Payload-class satellites include a variety of spacecraft equipped with specific instruments for various scientific and technological missions. These include communications satellites like Starlink; space stations such as the ISS; scientific satellites like the Hubble; Earth observation satellites from companies like Planet Labs, Umbra, and HawkEye 360; GPS; miniature CubeSats for education and research; and military/defense satellites.

Loading next visibility...
Identifier
43719, 2018-096A
Orbit
SSO
Country
Flag of ININ / IND
Related business
Manufacturer
ISRO
Mission
Operational Civil Imaging
Bus & Motor
SSB-2, AOCS
Mass
380 kg wet, ~350 kg dry
Launch date (UTC)
2018-11-29 (7 years ago)
Launch vehicle
PSLV
Launch site
Sirharikota (SRI)
Object type
Payload
Rocket body
Debris
Shape & HBR
Box + 2 Pan, 3.0 m
Radar Cross Section
4.485 m², Large (>1 m²)

Expand to show TLE details & history
Last TLE update: 23 hours ago

TLE from 23 hours ago
0 HYSIS
1 43719U 18096A   25306.51479034  .00001690  00000-0  23776-3 0  9991
2 43719  98.0149   9.6788 0001577 118.1085 242.0286 14.78666619373921
Epoch: 2025-11-02T12:21Z
TLE epoch observation values (Epoch: 2025-11-02T12:21:17.885Z)
Latitude
0.00004°
Longitude
142.32485°
Altitude
637.071 km
Speed
7.539 km/s
True Right ascension
00h 38m 42s
True Declination
0° 00' 00"
Sunlit
Object was in full shadow at epoch
Visualization orbit readout
Latitude
Unknown
Longitude
Unknown
Altitude
Unknown
Speed
Unknown
Apparent Right ascension
Unknown
Apparent Declination
Unknown
Sunlit
N/A
Visualization observer readout
Local Sidereal Time
06:47:56
Azimuth
Unknown
Elevation
Unknown
Doppler factor
Unknown
Orbital elements
Apogee altitude
631.689 km
Perigee altitude
629.479 km
Semi-major axis
7,008.721 km
Eccentricity
0.00016
Inclination
98.0149°
RAAN
9.6788°
Arg. of periapsis
118.1085°
True anomaly
242.01264°
Mean anomaly
242.0286°
Eccentric anomaly
242.02062°
Mean motion
3.69901 °/min
Orbital period
97.32 mins
BSTAR
0.00023776
Loading maneuver chart data...
Computing Atmospheric mass density...

Documentation

Showing up to 5 results
|